Precipitable_Water
0.43 0.42 0.42 0.42 0.42 0.43 0.43 0.43 0.44 0.44 0.46 0.47 0.48 0.51 0.52 0.54 0.56 0.57 0.58 0.60 0.61 0.61 0.60 0.58 0.56 0.53 0.51 0.50 0.48 0.46 0.45 0.44 0.43 0.43 0.43 0.43 0.43 0.43 0.43 0.42 0.42 0.42
0.42 0.42 0.42 0.42 0.42 0.42 0.43 0.43 0.43 0.43 0.44 0.44 0.45 0.46 0.48 0.50 0.52 0.54 0.56 0.56 0.56 0.55 0.54 0.53 0.52 0.52 0.51 0.49 0.48 0.47 0.45 0.44 0.43 0.44 0.44 0.44 0.44 0.43 0.42 0.42 0.42 0.42
0.41 0.41 0.41 0.41 0.41 0.41 0.41 0.42 0.43 0.43 0.43 0.43 0.44 0.44 0.44 0.45 0.45 0.46 0.47 0.48 0.49 0.50 0.51 0.51 0.51 0.51 0.51 0.50 0.49 0.48 0.47 0.47 0.46 0.46 0.45 0.44 0.43 0.42 0.42 0.42 0.41 0.41
0.40 0.40 0.40 0.41 0.41 0.41 0.41 0.41 0.41 0.42 0.42 0.42 0.42 0.43 0.44 0.44 0.43 0.43 0.43 0.43 0.43 0.43 0.44 0.44 0.44 0.44 0.44 0.44 0.44 0.43 0.43 0.43 0.44 0.44 0.43 0.43 0.42 0.41 0.40 0.40 0.39 0.38
0.39 0.39 0.40 0.40 0.41 0.41 0.42 0.41 0.41 0.41 0.41 0.41 0.42 0.42 0.41 0.42 0.42 0.42 0.42 0.42 0.42 0.42 0.42 0.42 0.42 0.42 0.42 0.42 0.42 0.42 0.42 0.42 0.42 0.41 0.41 0.40 0.39 0.39 0.38 0.37 0.37 0.37
0.39 0.39 0.39 0.39 0.39 0.39 0.39 0.39 0.40 0.40 0.41 0.40 0.40 0.41 0.41 0.41 0.40 0.40 0.40 0.40 0.40 0.40 0.40 0.40 0.40 0.41 0.41 0.41 0.41 0.41 0.40 0.40 0.40 0.39 0.38 0.37 0.36 0.35 0.34 0.34 0.34 0.34
0.38 0.38 0.38 0.37 0.37 0.37 0.36 0.36 0.36 0.36 0.37 0.38 0.39 0.39 0.39 0.38 0.38 0.38 0.38 0.38 0.37 0.37 0.37 0.37 0.37 0.37 0.37 0.36 0.36 0.35 0.35 0.35 0.35 0.35 0.34 0.33 0.33 0.32 0.32 0.32 0.32 0.33
0.37 0.38 0.38 0.38 0.38 0.38 0.37 0.37 0.37 0.37 0.37 0.36 0.36 0.36 0.36 0.36 0.36 0.36 0.36 0.36 0.36 0.36 0.36 0.36 0.35 0.35 0.35 0.34 0.33 0.32 0.32 0.32 0.31 0.31 0.31 0.31 0.31 0.31 0.31 0.32 0.32 0.32
0.39 0.39 0.39 0.39 0.39 0.39 0.39 0.39 0.39 0.39 0.39 0.38 0.37 0.37 0.37 0.36 0.35 0.35 0.34 0.34 0.33 0.33 0.32 0.32 0.32 0.32 0.31 0.31 0.31 0.30 0.30 0.30 0.30 0.30 0.30 0.30 0.30 0.30 0.31 0.32 0.31 0.31
0.38 0.38 0.39 0.39 0.38 0.39 0.39 0.39 0.39 0.39 0.40 0.39 0.39 0.39 0.38 0.38 0.37 0.36 0.35 0.34 0.34 0.33 0.33 0.32 0.32 0.32 0.31 0.31 0.31 0.30 0.30 0.30 0.30 0.30 0.30 0.30 0.29 0.30 0.30 0.30 0.30 0.30
0.35 0.35 0.36 0.36 0.37 0.38 0.38 0.38 0.39 0.39 0.39 0.39 0.39 0.39 0.39 0.39 0.38 0.38 0.36 0.35 0.34 0.34 0.33 0.33 0.33 0.33 0.32 0.32 0.32 0.32 0.31 0.31 0.31 0.30 0.30 0.30 0.30 0.30 0.30 0.30 0.30 0.29
0.34 0.34 0.34 0.34 0.34 0.35 0.35 0.36 0.36 0.37 0.37 0.38 0.38 0.37 0.38 0.38 0.37 0.37 0.36 0.35 0.35 0.34 0.33 0.33 0.33 0.33 0.33 0.33 0.32 0.32 0.32 0.32 0.31 0.31 0.31 0.31 0.31 0.30 0.30 0.30 0.29 0.29
0.33 0.33 0.33 0.33 0.33 0.33 0.33 0.33 0.33 0.34 0.34 0.34 0.35 0.35 0.35 0.35 0.36 0.36 0.36 0.35 0.35 0.34 0.33 0.33 0.32 0.32 0.31 0.31 0.32 0.32 0.31 0.31 0.31 0.31 0.31 0.31 0.31 0.30 0.30 0.30 0.30 0.30
0.32 0.32 0.32 0.32 0.32 0.32 0.32 0.31 0.31 0.31 0.31 0.31 0.32 0.31 0.31 0.31 0.31 0.32 0.33 0.33 0.32 0.32 0.32 0.32 0.32 0.31 0.30 0.30 0.30 0.30 0.30 0.30 0.29 0.29 0.29 0.29 0.29 0.30 0.30 0.30 0.30 0.30
0.32 0.32 0.31 0.31 0.31 0.30 0.30 0.29 0.29 0.28 0.28 0.27 0.27 0.27 0.27 0.27 0.28 0.28 0.28 0.28 0.28 0.29 0.29 0.30 0.30 0.30 0.30 0.30 0.29 0.29 0.29 0.29 0.28 0.28 0.28 0.28 0.28 0.29 0.29 0.29 0.29 0.29
0.30 0.29 0.28 0.28 0.27 0.27 0.26 0.25 0.25 0.24 0.24 0.24 0.23 0.24 0.24 0.24 0.25 0.25 0.25 0.25 0.25 0.25 0.26 0.26 0.26 0.27 0.28 0.28 0.29 0.29 0.29 0.29 0.29 0.29 0.28 0.28 0.28 0.28 0.28 0.29 0.29 0.29
0.26 0.25 0.25 0.24 0.23 0.23 0.22 0.22 0.21 0.21 0.21 0.21 0.20 0.20 0.20 0.20 0.20 0.20 0.20 0.20 0.21 0.21 0.22 0.23 0.24 0.25 0.25 0.26 0.26 0.27 0.27 0.27 0.27 0.28 0.28 0.28 0.28 0.27 0.27 0.27 0.28 0.28
0.24 0.23 0.22 0.22 0.21 0.21 0.20 0.20 0.19 0.18 0.18 0.18 0.18 0.17 0.17 0.18 0.17 0.17 0.17 0.17 0.17 0.17 0.17 0.17 0.18 0.20 0.21 0.22 0.23 0.24 0.25 0.25 0.24 0.24 0.25 0.25 0.26 0.26 0.27 0.27 0.27 0.27
0.22 0.21 0.20 0.20 0.19 0.19 0.18 0.18 0.17 0.17 0.16 0.16 0.16 0.16 0.16 0.15 0.15 0.15 0.14 0.15 0.14 0.14 0.14 0.14 0.14 0.15 0.15 0.16 0.17 0.18 0.19 0.20 0.20 0.20 0.20 0.21 0.21 0.22 0.22 0.23 0.24 0.25
0.19 0.19 0.18 0.18 0.17 0.17 0.16 0.16 0.15 0.15 0.15 0.15 0.14 0.14 0.14 0.13 0.13 0.13 0.12 0.12 0.12 0.12 0.12 0.12 0.13 0.13 0.13 0.14 0.14 0.15 0.16 0.17 0.18 0.18 0.18 0.18 0.17 0.18 0.18 0.19 0.20 0.20
0.18 0.17 0.17 0.16 0.16 0.16 0.15 0.15 0.14 0.14 0.13 0.13 0.13 0.13 0.12 0.12 0.11 0.11 0.11 0.11 0.11 0.11 0.11 0.11 0.12 0.12 0.13 0.13 0.13 0.14 0.14 0.15 0.15 0.16 0.16 0.16 0.17 0.17 0.17 0.17 0.17 0.18
0.16 0.15 0.15 0.15 0.14 0.14 0.13 0.13 0.13 0.12 0.12 0.12 0.12 0.12 0.12 0.11 0.10 0.10 0.10 0.10 0.10 0.10 0.10 0.10 0.11 0.11 0.12 0.12 0.12 0.13 0.13 0.14 0.14 0.14 0.14 0.14 0.15 0.16 0.16 0.16 0.16 0.16
0.14 0.14 0.13 0.13 0.13 0.12 0.12 0.12 0.11 0.11 0.11 0.11 0.10 0.10 0.10 0.09 0.09 0.09 0.10 0.10 0.09 0.09 0.09 0.10 0.10 0.11 0.11 0.11 0.12 0.12 0.13 0.13 0.13 0.13 0.13 0.13 0.13 0.14 0.15 0.16 0.16 0.16
0.13 0.13 0.12 0.11 0.11 0.10 0.10 0.10 0.10 0.10 0.10 0.10 0.10 0.09 0.09 0.09 0.09 0.09 0.09 0.09 0.09 0.09 0.10 0.10 0.10 0.10 0.11 0.11 0.11 0.12 0.12 0.12 0.12 0.12 0.12 0.12 0.13 0.13 0.14 0.15 0.15 0.15
0.11 0.11 0.10 0.10 0.09 0.09 0.09 0.09 0.09 0.09 0.09 0.10 0.09 0.09 0.09 0.09 0.09 0.09 0.09 0.09 0.09 0.09 0.10 0.10 0.10 0.10 0.10 0.11 0.11 0.11 0.12 0.12 0.12 0.12 0.11 0.12 0.12 0.12 0.13 0.13 0.14 0.14
0.10 0.09 0.09 0.08 0.08 0.08 0.08 0.08 0.09 0.09 0.09 0.09 0.09 0.09 0.09 0.09 0.09 0.09 0.09 0.09 0.09 0.09 0.09 0.10 0.09 0.10 0.10 0.10 0.10 0.11 0.11 0.11 0.11 0.11 0.11 0.11 0.11 0.11 0.11 0.12 0.13 0.13
Wind_Speed
34 35 36 36 37 37 38 38 38 39 39 39 39 39 40 40 40 40 40 40 40 41 41 41 42 43 44 45 46 46 47 48 48 48 49 50 50 51 52 52 52 52
34 35 35 35 36 36 36 36 37 37 37 37 38 38 38 38 38 39 39 39 39 40 40 41 42 43 44 45 45 46 47 48 49 49 50 51 52 52 53 53 54 54
34 34 34 35 35 35 35 35 35 35 35 36 36 36 36 37 37 37 38 38 39 39 40 41 42 43 44 44 45 46 47 48 49 50 51 52 52 53 54 54 55 55
34 34 34 34 34 34 34 34 34 35 34 35 35 35 35 36 36 37 37 38 39 40 41 42 42 43 44 45 46 47 47 48 49 50 51 52 53 53 54 54 55 55
34 34 34 34 34 34 34 34 35 35 35 35 35 35 36 36 37 37 38 39 40 41 42 42 43 44 45 46 47 48 48 49 50 50 51 52 52 53 53 53 54 54
33 33 34 34 34 34 34 35 35 35 35 35 35 36 36 37 37 38 39 40 41 41 42 43 44 45 45 46 47 48 49 49 50 50 51 52 52 52 52 52 53 53
32 32 32 32 32 33 33 33 34 34 35 35 36 36 36 37 38 39 40 41 41 42 43 44 45 45 46 46 47 48 48 49 49 50 51 51 51 51 51 51 52 52
31 31 31 31 31 31 31 32 33 33 34 34 35 36 36 37 38 39 40 41 42 43 43 44 45 46 46 47 48 48 49 49 49 50 51 51 51 51 51 51 51 52
30 29 30 30 30 31 31 32 32 33 34 34 35 36 37 38 39 39 40 41 42 43 43 44 45 46 46 47 48 49 49 49 50 50 51 51 51 51 51 51 52 52
29 29 30 30 30 31 32 32 33 34 34 35 36 37 38 39 40 41 41 42 43 44 45 45 46 47 47 48 49 49 50 50 50 51 51 52 52 52 51 51 52 52
30 31 31 31 32 33 33 34 35 35 36 37 37 38 39 40 41 42 43 44 45 46 46 47 48 48 49 49 50 50 51 51 52 52 53 53 53 53 53 53 53 53
32 33 33 34 35 35 36 36 37 37 38 39 39 40 41 42 43 44 44 45 46 47 48 49 49 50 50 51 51 52 53 53 53 54 54 54 54 55 55 55 55 55
35 35 36 36 37 38 38 39 39 40 41 41 42 43 43 44 45 46 46 47 48 48 49 50 51 51 52 53 53 54 54 54 55 55 56 56 56 56 56 57 57 57
37 37 38 39 39 40 41 41 42 43 43 44 45 45 46 47 47 47 48 48 49 50 51 52 52 53 54 54 55 55 56 56 57 57 57 58 58 58 58 58 59 59
39 39 40 41 42 42 43 44 44 45 45 46 47 48 48 48 48 49 49 50 51 51 52 53 54 55 55 56 57 58 58 59 59 59 60 60 60 60 60 60 60 60
41 42 42 43 44 44 45 45 46 46 47 48 48 49 49 50 50 51 52 52 53 54 54 55 55 56 57 58 59 59 60 60 61 61 61 61 62 62 62 62 61 61
42 43 44 44 45 45 46 46 47 48 48 49 50 51 51 52 52 53 54 54 55 56 56 57 57 57 58 59 60 61 61 61 62 62 62 63 63 63 63 63 62 62
44 44 45 45 46 47 47 48 49 50 51 51 52 53 53 53 54 55 55 56 56 57 57 57 58 58 59 60 61 61 62 62 62 63 63 63 64 64 64 64 63 63
45 45 46 47 48 48 49 49 50 51 52 53 54 54 54 54 55 55 56 56 56 57 57 58 58 58 59 60 61 61 62 62 62 63 63 64 64 64 64 64 64 64
46 47 47 48 49 49 50 51 52 53 53 53 54 54 54 54 55 55 55 56 56 57 57 57 58 58 59 59 60 60 61 61 61 62 62 63 63 63 63 64 64 63
47 48 49 50 50 51 52 52 52 53 53 53 53 53 53 54 54 55 55 55 56 56 57 57 57 58 58 58 59 59 59 59 59 60 61 61 61 62 62 63 63 63
49 50 50 51 51 51 52 52 52 53 53 53 53 53 53 53 54 54 54 54 55 55 55 56 55 56 57 57 57 58 58 58 58 59 59 60 60 61 61 62 62 63
50 50 51 51 51 52 52 52 52 53 53 53 53 53 53 53 53 53 53 53 54 54 54 54 54 54 55 56 56 56 56 56 57 58 58 59 60 60 60 61 61 62
50 50 51 51 51 52 52 52 53 53 53 52 52 53 53 53 52 52 52 52 53 53 53 53 53 54 54 55 55 55 55 56 56 57 57 58 59 59 59 60 60 61
50 51 51 51 52 52 52 52 52 52 52 52 52 52 52 52 52 52 52 52 52 52 52 53 53 53 54 54 55 55 55 55 55 56 57 57 58 58 58 59 59 60
50 51 51 51 51 52 52 51 52 52 52 52 52 52 52 52 52 52 52 52 52 52 52 52 52 53 53 54 54 55 55 55 55 56 56 57 57 58 58 58 58 59
Wind_Direction
278 276 275 274 273 273 273 273 272 271 270 269 269 268 267 266 266 264 264 263 262 261 259 259 259 260 260 261 261 262 262 263 263 264 264 264 265 265 266 266 267 267
279 277 276 275 275 275 275 274 273 272 271 270 269 269 268 267 266 265 264 263 262 262 261 261 262 262 262 263 263 263 264 264 265 265 265 265 266 266 267 267 267 268
279 278 276 276 276 276 275 274 273 272 271 271 269 269 268 267 266 265 264 264 264 264 264 264 265 264 264 265 264 265 265 265 266 266 266 267 267 267 268 268 268 269
280 279 278 277 276 276 276 275 273 272 272 271 270 269 269 268 267 266 266 266 266 267 267 267 267 267 266 266 266 267 267 267 267 267 268 268 269 269 269 269 269 269
280 280 279 278 277 276 276 275 274 273 273 272 272 271 270 269 269 268 268 268 268 268 269 269 269 268 268 268 268 269 269 269 269 269 269 270 270 270 270 270 269 269
281 281 280 279 278 277 276 275 275 275 274 273 273 272 271 270 270 269 269 269 269 269 269 269 269 269 269 269 269 269 270 270 270 270 270 270 270 270 270 270 270 269
283 283 281 280 279 278 277 276 276 276 275 275 274 273 272 271 271 270 270 270 270 270 269 269 269 269 269 269 270 270 270 270 270 270 270 270 270 270 270 270 270 269
285 284 282 281 280 280 279 278 277 277 276 276 275 275 274 273 273 272 272 271 271 271 270 270 270 270 270 270 270 270 270 270 270 270 270 270 270 270 270 270 270 270
285 284 283 282 282 281 280 280 279 278 277 277 276 276 275 275 274 274 273 273 272 272 272 272 272 271 271 271 270 270 270 270 270 270 270 270 270 270 270 270 270 270
285 285 284 284 283 283 282 281 280 280 279 278 278 277 277 276 275 274 274 274 273 273 273 273 273 273 272 272 271 271 271 271 271 271 270 270 270 270 270 270 270 270
286 285 285 285 285 284 284 283 283 282 281 280 280 279 279 278 277 277 276 275 274 274 274 274 274 273 273 273 272 272 272 272 272 271 271 271 271 271 271 271 270 270
285 285 286 286 285 285 285 284 284 283 283 282 282 281 281 280 280 279 278 277 277 276 276 275 275 274 274 273 273 273 272 272 272 272 272 272 271 271 271 271 271 271
285 285 285 285 285 284 284 284 283 283 283 283 282 282 282 282 281 280 279 279 278 278 277 277 276 275 275 274 274 274 273 273 272 272 272 272 271 271 271 271 271 271
284 284 284 284 284 284 284 284 283 283 283 283 283 283 283 283 282 281 280 279 279 279 278 277 277 276 275 275 274 274 273 273 272 272 272 272 271 271 271 271 271 270
285 285 285 285 285 285 285 285 284 284 284 284 284 284 283 283 282 281 281 280 280 280 279 278 277 277 276 275 275 274 274 273 273 272 272 272 272 271 271 271 270 270
286 286 286 286 286 286 286 286 286 286 286 286 285 285 284 284 283 282 282 282 281 281 280 279 279 278 277 276 275 275 274 274 273 273 272 272 272 272 271 271 270 270
287 287 287 287 287 287 287 287 287 287 287 287 287 287 286 285 285 284 283 283 282 282 281 280 279 278 277 276 276 275 274 274 273 273 272 272 272 272 272 271 271 270
288 288 288 288 288 288 287 287 287 287 288 288 288 287 287 286 285 285 284 284 283 282 282 281 280 279 278 277 277 276 275 274 274 273 273 272 272 272 272 271 271 271
288 288 288 288 288 288 288 287 288 288 288 288 287 287 286 286 285 285 285 284 284 283 282 282 281 280 280 279 278 277 276 276 275 274 273 273 272 272 272 272 271 271
289 289 289 289 289 288 288 288 288 288 288 288 287 287 286 286 286 285 285 284 284 284 283 282 282 281 281 280 279 278 277 276 275 275 274 273 273 272 272 272 272 271
290 290 290 289 289 289 289 289 288 288 288 288 288 287 287 287 286 286 286 285 285 284 283 283 282 282 282 281 280 279 278 277 276 275 275 274 273 273 272 272 271 271
290 290 290 290 289 289 289 289 289 289 289 288 288 288 287 287 287 286 286 286 285 285 284 283 283 283 282 281 281 280 279 278 277 276 275 275 274 273 273 272 271 271
290 290 290 290 290 290 290 290 289 289 289 289 288 288 288 288 287 287 286 286 286 285 285 284 283 283 283 282 282 281 280 279 278 277 276 275 275 274 274 273 272 271
291 291 291 291 291 291 290 290 290 290 289 289 289 289 289 288 288 287 287 287 286 286 285 285 284 284 284 283 282 282 280 279 278 278 277 276 276 275 274 274 273 272
292 292 292 292 291 291 291 291 290 290 289 289 289 289 289 288 288 288 287 287 287 286 286 286 285 285 284 284 283 282 281 280 279 278 278 277 277 276 275 275 274 273
292 292 292 292 292 291 291 291 290 290 290 290 290 289 289 288 288 288 287 287 287 287 286 286 286 285 285 285 284 283 282 281 280 279 278 278 277 277 276 276 275 274